カタログに戻る

COSMOS 643

運用中軍事LEO
NORAD 7267·PAYLOAD·🇷🇺 Russia

打ち上げ Apr 23, 1974 から Plesetsk Cosmodrome

Loading…

次のパス (今後24時間)

TLE

最新Source: Space-Track

元期: Sep 14, 2026, 13:15 UTC

1 07267U 74024C   26257.55251227  .00000001  00000-0  98348-4 0  9997
2 07267  74.0223 355.2512 0083070 267.3771 102.3941 12.61593796412901

AllMySatでCOSMOS 643をリアルタイム追跡

Download on the App Store